User: anonymous
Location: Shell Point
(30.0571°N, 84.2896°W)
Time: 12:41:27
(UTC-04:00)
Language:

Meteor 2-19 Rocket - Orbit

View from above orbital plane
View from above orbital plane
View from above satellite
View from above satellite

Ground track
Ground track

The orbit data is extracted from the following two-line orbital elements,

1 20671U 90057B   14293.51324774  .00000022  00000-0  61544-5 0  1170
2 20671 082.5483 063.6684 0015931 160.0746 270.5919 13.84578124228743
Epoch (UTC): 20 October 2014 12:19:04
Eccentricity: 0.0015931
inclination: 82.5483°
perigee height: 936 km
apogee height: 959 km
right ascension of ascending node: 63.6684°
argument of perigee: 160.0746°
revolutions per day: 13.84578124
mean anomaly at epoch: 270.5919°
orbit number at epoch: 22874

The dashed part of the orbit path shows where the satellite is in the earth's shadow,  

DLR